User: anonymous   Login
Location: Alincthun
(50.7310°N, 1.8022°E)
Time: 05:35:11
(UTC+00:00)
Language:

STARLINK-1180 - Orbit

View from above orbital plane
View from above orbital plane
View from above satellite
View from above satellite

Ground track
Ground track

The orbit data is extracted from the following two-line orbital elements,

1 45076C 20006AJ  20152.82617082 -.00003503  00000-0 -23984-3 0  1527
2 45076  53.0026   9.1804 0001799  85.7595 355.5190 15.05598055    19
Epoch (UTC): 31 May 2020 19:49:41
Eccentricity: 0.0001799
inclination: 53.0026°
perigee height: 548 km
apogee height: 551 km
right ascension of ascending node: 9.1804°
argument of perigee: 85.7595°
revolutions per day: 15.05598055
mean anomaly at epoch: 355.5190°
orbit number at epoch: 1

The dashed part of the orbit path shows where the satellite is in the earth's shadow,  

DLR